Regional Weather Roundup
Issued by NWS Bismarck, ND

Home | Current Version | Previous Version | Text Only | Print | Product List | Glossary On
Versions: 1 2 3 4 5 6 7 8 9 10 11 12 13 14 15 16 17 18 19 20 21 22 23 24 25 26 27 28 29 30 31 32 33 34 35 36 37 38 39 40 41 42 43 44 45 46 47 48 49 50
000
ASUS43 KBIS 260920
RWRBIS

NWR BROADCAST TEXT
NATIONAL WEATHER SERVICE BISMARCK ND
300 AM CST MON JAN 26 2015

NOTE: "FAIR" INDICATES FEW OR NO CLOUDS BELOW 12,000 FEET WITH NO
SIGNIFICANT WEATHER AND/OR OBSTRUCTIONS TO VISIBILITY.


CITY           SKY/WX    TMP DP  RH WIND       PRES   REMARKS
WILLISTON      MOCLDY    37  32  82 SW5       29.88R
MINOT          MOCLDY    38  31  76 W13       29.77R
MINOT AFB      MOCLDY    38  36  93 NW18      29.76R
BISMARCK       CLEAR     41  31  67 NW9       29.82R
DICKINSON      MOCLDY    39  33  79 W13       29.86R
GARRISON         N/A     39  33  79 NW20      29.80R
HETTINGER ARPT CLEAR     36  31  82 NW9       29.90R
JAMESTOWN      MOCLDY    38  32  79 NW20      29.70R
BEACH          FAIR      37  36  93 W15       29.92S
CARRINGTON     CLOUDY    37  37 100 MISG      29.73R
CROSBY         PTSUNNY   37  34  87 W15       29.86R
HARVEY         FAIR      36  32  87 NW15      29.74R
HAZEN          FAIR      36  32  87 SW8       29.84R
LINTON         FAIR      36  36 100 W7        29.82R
MANDAN         FAIR      39  34  81 NW16G23   29.82R
OAKES            N/A     34  34 100 SW9       29.71S
RUGBY          FAIR      32  32 100 W15       29.71R
STANLEY        PTSUNNY   37  36  93 NW13      29.81R
TIOGA          CLOUDY    37  36  93 NW18G24   29.87R
WATFORD CITY   CLOUDY    39  34  81 W10       29.87R
$$

CITY           SKY/WX    TMP DP  RH WIND       PRES   REMARKS
GRAND FORKS    CLEAR     30  27  88 W8        29.61S
GRAND FORKS AF CLEAR     38  31  76 NW15      29.62R
DEVILS LAKE    CLEAR     36  30  80 W16       29.67S
FARGO          MOCLDY    31  27  85 SW12      29.66F
CANDO          FAIR      32  28  86 W16       29.67S
CAVALIER       FAIR      37  32  81 NW14G22   29.59R
GWINNER        PTSUNNY   36  36 100 W17       29.71S
LANGDON        FAIR      34  28  80 W24       29.61S
ROLLA          FAIR      39  32  75 NW16G24   29.67R
WALHALLA         N/A     39  36  87 NW15G25   29.60R
$$

CITY           SKY/WX    TMP DP  RH WIND       PRES   REMARKS
ABERDEEN       PTCLDY    32  29  88 SW7       29.76S
MOBRIDGE       CLEAR     39  33  79 N10       29.80R
BUFFALO          N/A     40  32  73 W15       29.88R
RAPID CITY     CLEAR     52  29  41 NW16      29.96S
GLASGOW        CLEAR     35  30  82 NW8       29.94R
SIDNEY         CLOUDY    37  34  87 S3        29.95R
WOLF POINT     PTCLDY    36  32  85 W9        29.94R
GLENDIVE       CLEAR     37  32  81 W8        29.94S
MILES CITY     CLEAR     37  30  75 SW7       29.99S
BAKER          CLEAR     37  32  82 W14       29.95R
$$

CITY           SKY/WX    TMP DP  RH WIND       PRES   REMARKS
BILLINGS       MOCLDY    49  28  44 W22       30.09S
GREAT FALLS    CLOUDY    53  27  36 SW16      30.07F
REGINA         PTCLDY    36  30  80 W16       29.85R
ESTEVAN        PTCLDY    36  30  80 W15       29.80S
$$



USA.gov is the U.S. government's official web portal to all federal, state and local government web resources and services.